Time,TemperatureF,DewpointF,PressureIn,WindDirection,WindDirectionDegrees,WindSpeedMPH,WindSpeedGustMPH,Humidity,HourlyPrecipIn,Conditions,Clouds,dailyrainin,SoftwareType,DateUTC
2013-07-15 00:02:00,73.0,70.0,30.15,NE,43,0.0,32.0,89,0.00,,,0.00,,2013-07-15 05:02:00,
2013-07-15 00:11:00,73.0,70.0,30.15,ENE,64,0.0,32.0,89,0.00,,,0.00,,2013-07-15 05:11:00,
2013-07-15 00:21:00,73.0,70.0,30.15,ENE,64,0.0,1.0,89,0.00,,,0.00,,2013-07-15 05:21:00,
2013-07-15 00:32:00,73.0,70.0,30.15,ENE,64,0.0,1.0,89,0.00,,,0.00,,2013-07-15 05:32:00,
2013-07-15 00:43:00,72.0,69.0,30.15,ENE,64,0.0,1.0,89,0.00,,,0.00,,2013-07-15 05:43:00,
2013-07-15 00:53:00,72.0,69.0,30.15,ENE,64,0.0,1.0,89,0.00,,,0.00,,2013-07-15 05:53:00,
2013-07-15 01:02:00,72.0,69.0,30.15,ENE,64,0.0,1.0,89,0.00,,,0.00,,2013-07-15 06:02:00,
2013-07-15 01:11:00,72.0,69.0,30.15,ENE,64,0.0,1.0,89,0.00,,,0.00,,2013-07-15 06:11:00,
2013-07-15 01:22:00,72.0,70.0,30.15,ENE,58,1.0,2.0,93,0.00,,,0.00,,2013-07-15 06:22:00,
2013-07-15 01:32:00,72.0,70.0,30.16,ENE,59,1.0,3.0,93,0.00,,,0.00,,2013-07-15 06:32:00,
2013-07-15 01:42:00,72.0,70.0,30.16,NE,47,0.0,3.0,93,0.00,,,0.00,,2013-07-15 06:42:00,
2013-07-15 01:53:00,72.0,70.0,30.16,NNE,23,0.0,3.0,93,0.00,,,0.00,,2013-07-15 06:53:00,
2013-07-15 02:01:00,72.0,70.0,30.16,ENE,71,2.0,3.0,93,0.00,,,0.00,,2013-07-15 07:01:00,
2013-07-15 02:11:00,72.0,70.0,30.16,ENE,57,1.0,4.0,93,0.00,,,0.00,,2013-07-15 07:11:00,
2013-07-15 02:21:00,71.0,69.0,30.16,East,92,0.0,4.0,93,0.00,,,0.00,,2013-07-15 07:21:00,
2013-07-15 02:33:00,71.0,69.0,30.16,East,92,0.0,4.0,93,0.00,,,0.00,,2013-07-15 07:33:00,
2013-07-15 02:43:00,71.0,69.0,30.16,East,92,0.0,4.0,93,0.00,,,0.00,,2013-07-15 07:43:00,
2013-07-15 02:53:00,72.0,70.0,30.16,East,92,0.0,4.0,93,0.00,,,0.00,,2013-07-15 07:53:00,
2013-07-15 03:01:00,72.0,70.0,30.16,ENE,60,2.0,4.0,93,0.00,,,0.00,,2013-07-15 08:01:00,
2013-07-15 03:11:00,72.0,70.0,30.16,ENE,68,2.0,4.0,93,0.00,,,0.00,,2013-07-15 08:11:00,
2013-07-15 03:22:00,72.0,70.0,30.16,ENE,68,2.0,5.0,94,0.00,,,0.00,,2013-07-15 08:22:00,
2013-07-15 03:32:00,72.0,70.0,30.16,ENE,66,2.0,5.0,94,0.00,,,0.00,,2013-07-15 08:32:00,
2013-07-15 03:43:00,72.0,70.0,30.16,East,85,2.0,5.0,94,0.00,,,0.00,,2013-07-15 08:43:00,
2013-07-15 03:53:00,72.0,70.0,30.16,East,87,2.0,5.0,94,0.00,,,0.00,,2013-07-15 08:53:00,
2013-07-15 04:01:00,72.0,70.0,30.16,East,85,2.0,5.0,94,0.00,,,0.00,,2013-07-15 09:01:00,
2013-07-15 04:11:00,72.0,70.0,30.17,ESE,111,2.0,5.0,94,0.00,,,0.00,,2013-07-15 09:11:00,
2013-07-15 04:22:00,71.0,69.0,30.17,ENE,70,1.0,5.0,94,0.00,,,0.00,,2013-07-15 09:22:00,
2013-07-15 04:32:00,71.0,69.0,30.17,SSE,150,3.0,6.0,94,0.00,,,0.00,,2013-07-15 09:32:00,
2013-07-15 04:43:00,71.0,69.0,30.17,SSE,156,1.0,6.0,94,0.00,,,0.00,,2013-07-15 09:43:00,
2013-07-15 04:52:00,71.0,69.0,30.17,SE,144,2.0,7.0,94,0.00,,,0.00,,2013-07-15 09:52:00,
2013-07-15 05:02:00,71.0,69.0,30.17,SE,138,2.0,7.0,94,0.00,,,0.00,,2013-07-15 10:02:00,
2013-07-15 05:11:00,71.0,69.0,30.17,ESE,107,1.0,7.0,94,0.00,,,0.00,,2013-07-15 10:11:00,
2013-07-15 05:22:00,71.0,69.0,30.17,ENE,68,1.0,7.0,93,0.00,,,0.00,,2013-07-15 10:22:00,
2013-07-15 05:32:00,71.0,69.0,30.17,NE,41,0.0,7.0,93,0.00,,,0.00,,2013-07-15 10:32:00,
2013-07-15 05:43:00,71.0,69.0,30.17,NE,44,1.0,7.0,93,0.00,,,0.00,,2013-07-15 10:43:00,
2013-07-15 05:52:00,71.0,69.0,30.18,NE,41,0.0,7.0,93,0.00,,,0.00,,2013-07-15 10:52:00,
2013-07-15 06:01:00,71.0,69.0,30.18,ENE,59,1.0,7.0,93,0.00,,,0.00,,2013-07-15 11:01:00,
2013-07-15 06:11:00,71.0,69.0,30.18,East,93,0.0,7.0,93,0.00,,,0.00,,2013-07-15 11:11:00,
2013-07-15 06:22:00,71.0,69.0,30.18,ENE,78,1.0,7.0,93,0.00,,,0.00,,2013-07-15 11:22:00,
2013-07-15 06:32:00,71.0,69.0,30.18,ENE,69,1.0,7.0,93,0.00,,,0.00,,2013-07-15 11:32:00,
2013-07-15 06:42:00,71.0,69.0,30.18,ENE,76,1.0,7.0,93,0.00,,,0.00,,2013-07-15 11:42:00,
2013-07-15 06:52:00,71.0,69.0,30.18,ENE,76,1.0,7.0,93,0.00,,,0.00,,2013-07-15 11:52:00,
2013-07-15 07:11:00,72.0,70.0,30.18,East,84,2.0,7.0,93,0.00,,,0.00,,2013-07-15 12:11:00,
2013-07-15 07:22:00,72.0,70.0,30.18,East,80,2.0,7.0,94,0.00,,,0.00,,2013-07-15 12:22:00,
2013-07-15 07:32:00,73.0,71.0,30.18,East,80,2.0,7.0,94,0.00,,,0.00,,2013-07-15 12:32:00,
2013-07-15 07:42:00,73.0,71.0,30.18,ENE,77,2.0,7.0,94,0.00,,,0.00,,2013-07-15 12:42:00,
2013-07-15 07:52:00,74.0,72.0,30.18,ENE,74,2.0,7.0,94,0.00,,,0.00,,2013-07-15 12:52:00,
2013-07-15 08:01:00,75.0,73.0,30.18,East,83,1.0,7.0,94,0.00,,,0.00,,2013-07-15 13:01:00,
2013-07-15 08:11:00,75.0,73.0,30.19,NE,55,2.0,7.0,94,0.00,,,0.00,,2013-07-15 13:11:00,
2013-07-15 08:22:00,76.0,73.0,30.19,ENE,70,1.0,7.0,89,0.00,,,0.00,,2013-07-15 13:22:00,
2013-07-15 08:33:00,77.0,74.0,30.19,East,85,2.0,7.0,89,0.00,,,0.00,,2013-07-15 13:33:00,
2013-07-15 08:43:00,77.0,74.0,30.19,ENE,64,2.0,7.0,89,0.00,,,0.00,,2013-07-15 13:43:00,
2013-07-15 08:53:00,77.0,74.0,30.19,East,80,1.0,7.0,89,0.00,,,0.00,,2013-07-15 13:53:00,
2013-07-15 09:33:00,80.0,75.0,30.20,NNE,13,0.0,7.0,85,0.00,,,0.00,,2013-07-15 14:33:00,
2013-07-15 09:42:00,81.0,76.0,30.19,ENE,77,3.0,7.0,85,0.00,,,0.00,,2013-07-15 14:42:00,
2013-07-15 09:56:00,82.0,77.0,30.20,East,88,2.0,7.0,85,0.00,,,0.00,,2013-07-15 14:56:00,
2013-07-15 10:03:00,83.0,78.0,30.20,East,89,2.0,7.0,85,0.00,,,0.00,,2013-07-15 15:03:00,
2013-07-15 10:16:00,83.0,78.0,30.20,SE,146,1.0,7.0,85,0.00,,,0.00,,2013-07-15 15:16:00,
2013-07-15 10:27:00,83.0,77.0,30.20,ESE,103,1.0,7.0,81,0.00,,,0.00,,2013-07-15 15:27:00,
2013-07-15 10:37:00,83.0,77.0,30.20,East,91,3.0,7.0,81,0.00,,,0.00,,2013-07-15 15:37:00,
2013-07-15 10:45:00,84.0,78.0,30.20,ESE,114,2.0,7.0,81,0.00,,,0.00,,2013-07-15 15:45:00,
2013-07-15 10:53:00,84.0,78.0,30.20,ESE,117,1.0,7.0,81,0.00,,,0.00,,2013-07-15 15:53:00,
2013-07-15 11:07:00,85.0,78.0,30.21,ESE,102,2.0,7.0,81,0.00,,,0.00,,2013-07-15 16:07:00,
2013-07-15 11:15:00,85.0,78.0,30.21,ENE,72,2.0,7.0,81,0.00,,,0.00,,2013-07-15 16:15:00,
2013-07-15 11:24:00,85.0,77.0,30.21,ESE,108,2.0,7.0,78,0.00,,,0.00,,2013-07-15 16:24:00,
2013-07-15 11:33:00,84.0,76.0,30.21,SW,222,0.0,7.0,78,0.00,,,0.00,,2013-07-15 16:33:00,
2013-07-15 11:52:00,86.0,78.0,30.21,ESE,120,2.0,7.0,78,0.00,,,0.00,,2013-07-15 16:52:00,
2013-07-15 12:05:00,87.0,79.0,30.21,South,185,0.0,7.0,78,0.00,,,0.00,,2013-07-15 17:05:00,
2013-07-15 12:13:00,87.0,79.0,30.21,ESE,119,3.0,7.0,78,0.00,,,0.00,,2013-07-15 17:13:00,
2013-07-15 12:23:00,89.0,78.0,30.21,SE,137,2.0,8.0,71,0.00,,,0.00,,2013-07-15 17:23:00,
2013-07-15 12:36:00,89.0,78.0,30.21,ENE,60,2.0,8.0,71,0.00,,,0.00,,2013-07-15 17:36:00,
2013-07-15 12:55:00,87.0,76.0,30.21,SSE,151,1.0,8.0,71,0.00,,,0.00,,2013-07-15 17:55:00,
2013-07-15 13:05:00,87.0,76.0,30.21,ESE,105,2.0,8.0,71,0.00,,,0.00,,2013-07-15 18:05:00,
2013-07-15 13:16:00,86.0,75.0,30.21,ENE,78,1.0,8.0,71,0.00,,,0.00,,2013-07-15 18:16:00,
2013-07-15 13:27:00,88.0,77.0,30.22,East,96,1.0,8.0,69,0.00,,,0.00,,2013-07-15 18:27:00,
2013-07-15 13:37:00,88.0,77.0,30.22,ESE,118,2.0,8.0,69,0.00,,,0.00,,2013-07-15 18:37:00,
2013-07-15 13:45:00,89.0,77.0,30.22,ESE,113,1.0,8.0,69,0.00,,,0.00,,2013-07-15 18:45:00,
2013-07-15 13:55:00,89.0,77.0,30.22,SSE,150,0.0,8.0,69,0.00,,,0.00,,2013-07-15 18:55:00,
2013-07-15 14:05:00,90.0,78.0,30.22,ESE,108,1.0,8.0,69,0.00,,,0.00,,2013-07-15 19:05:00,
2013-07-15 14:11:00,89.0,77.0,30.22,South,171,0.0,8.0,69,0.00,,,0.00,,2013-07-15 19:11:00,
2013-07-15 14:24:00,90.0,78.0,30.22,SSE,158,1.0,8.0,69,0.00,,,0.00,,2013-07-15 19:24:00,
2013-07-15 14:35:00,91.0,79.0,30.22,ESE,122,3.0,8.0,69,0.00,,,0.00,,2013-07-15 19:35:00,
2013-07-15 15:06:00,86.0,75.0,30.22,SSE,152,0.0,8.0,69,0.00,,,0.00,,2013-07-15 20:06:00,
2013-07-15 16:37:00,88.0,75.0,30.22,SSE,151,0.0,9.0,65,0.00,,,0.00,,2013-07-15 21:37:00,
2013-07-15 17:02:00,91.0,78.0,30.22,NE,50,2.0,9.0,65,0.00,,,0.00,,2013-07-15 22:02:00,
2013-07-15 17:22:00,89.0,77.0,30.22,East,98,3.0,11.0,67,0.00,,,0.00,,2013-07-15 22:22:00,
2013-07-15 17:34:00,90.0,78.0,30.22,SE,131,6.0,11.0,67,0.00,,,0.00,,2013-07-15 22:34:00,
2013-07-15 17:43:00,90.0,78.0,30.22,ENE,73,2.0,11.0,67,0.00,,,0.00,,2013-07-15 22:43:00,
2013-07-15 17:54:00,90.0,78.0,30.21,ENE,78,5.0,11.0,67,0.00,,,0.00,,2013-07-15 22:54:00,
2013-07-15 18:13:00,90.0,78.0,30.21,ESE,106,1.0,11.0,67,0.00,,,0.00,,2013-07-15 23:13:00,
2013-07-15 18:27:00,91.0,80.0,30.21,SSE,165,2.0,11.0,71,0.00,,,0.00,,2013-07-15 23:27:00,
2013-07-15 18:37:00,91.0,80.0,30.21,ESE,105,3.0,11.0,71,0.00,,,0.00,,2013-07-15 23:37:00,
2013-07-15 18:46:00,91.0,80.0,30.21,ESE,114,2.0,11.0,71,0.00,,,0.00,,2013-07-15 23:46:00,
2013-07-15 18:53:00,90.0,79.0,30.21,SE,129,1.0,11.0,71,0.00,,,0.00,,2013-07-15 23:53:00,
2013-07-15 19:03:00,90.0,79.0,30.21,SE,124,2.0,11.0,71,0.00,,,0.00,,2013-07-16 00:03:00,
2013-07-15 19:14:00,90.0,79.0,30.21,SE,139,1.0,11.0,71,0.00,,,0.00,,2013-07-16 00:14:00,
2013-07-15 19:25:00,89.0,80.0,30.21,SSE,150,2.0,11.0,76,0.00,,,0.00,,2013-07-16 00:25:00,
2013-07-15 19:33:00,89.0,80.0,30.21,SSE,147,2.0,11.0,76,0.00,,,0.00,,2013-07-16 00:33:00,
2013-07-15 19:53:00,88.0,79.0,30.21,ENE,77,2.0,11.0,76,0.00,,,0.00,,2013-07-16 00:53:00,
2013-07-15 20:07:00,88.0,79.0,30.21,East,96,0.0,11.0,76,0.00,,,0.00,,2013-07-16 01:07:00,
2013-07-15 20:15:00,87.0,78.0,30.21,ESE,119,0.0,11.0,76,0.00,,,0.00,,2013-07-16 01:15:00,
2013-07-15 20:26:00,85.0,78.0,30.21,ENE,76,0.0,11.0,81,0.00,,,0.00,,2013-07-16 01:26:00,
2013-07-15 20:36:00,83.0,77.0,30.21,East,82,0.0,11.0,81,0.00,,,0.00,,2013-07-16 01:36:00,
2013-07-15 20:56:00,81.0,75.0,30.21,ENE,73,0.0,11.0,81,0.00,,,0.00,,2013-07-16 01:56:00,
2013-07-15 21:03:00,81.0,75.0,30.21,ENE,73,0.0,11.0,81,0.00,,,0.00,,2013-07-16 02:03:00,
2013-07-15 21:11:00,80.0,74.0,30.21,ENE,73,0.0,11.0,81,0.00,,,0.00,,2013-07-16 02:11:00,
2013-07-15 21:27:00,80.0,76.0,30.21,ENE,73,0.0,11.0,87,0.00,,,0.00,,2013-07-16 02:27:00,
2013-07-15 21:35:00,79.0,75.0,30.21,ESE,118,1.0,11.0,87,0.00,,,0.00,,2013-07-16 02:35:00,
2013-07-15 21:47:00,79.0,75.0,30.21,SE,126,0.0,11.0,87,0.00,,,0.00,,2013-07-16 02:47:00,
2013-07-15 21:54:00,79.0,75.0,30.20,SE,126,0.0,11.0,87,0.00,,,0.00,,2013-07-16 02:54:00,
2013-07-15 22:15:00,78.0,74.0,30.20,SE,126,0.0,11.0,87,0.00,,,0.00,,2013-07-16 03:15:00,
2013-07-15 22:27:00,78.0,74.0,30.20,SE,126,0.0,11.0,89,0.00,,,0.00,,2013-07-16 03:27:00,
2013-07-15 22:38:00,78.0,74.0,30.20,SE,126,0.0,11.0,89,0.00,,,0.00,,2013-07-16 03:38:00,
2013-07-15 22:47:00,78.0,74.0,30.20,SE,126,0.0,11.0,89,0.00,,,0.00,,2013-07-16 03:47:00,
2013-07-15 22:56:00,77.0,74.0,30.20,NE,37,0.0,11.0,89,0.00,,,0.00,,2013-07-16 03:56:00,
2013-07-15 23:01:00,77.0,74.0,30.20,NE,39,0.0,11.0,89,0.00,,,0.00,,2013-07-16 04:01:00,
2013-07-15 23:12:00,77.0,74.0,30.20,NE,50,1.0,11.0,89,0.00,,,0.00,,2013-07-16 04:12:00,
2013-07-15 23:22:00,77.0,73.0,30.20,NE,46,1.0,11.0,87,0.00,,,0.00,,2013-07-16 04:22:00,
2013-07-15 23:32:00,77.0,73.0,30.21,ENE,62,0.0,11.0,87,0.00,,,0.00,,2013-07-16 04:32:00,
2013-07-15 23:43:00,77.0,73.0,30.21,NE,49,0.0,11.0,87,0.00,,,0.00,,2013-07-16 04:43:00,
2013-07-15 23:53:00,77.0,73.0,30.21,ENE,60,1.0,11.0,87,0.00,,,0.00,,2013-07-16 04:53:00,